Weather History for Andalusia, AL

Change the Weather History Date:

Sunday, January 20, 2013

  Actual Average (KCEW) Record (KCEW)
Temperature  
Mean Temperature 54 °F -  
Max Temperature 68 °F 59 °F 79 °F (1982)
Min Temperature 41 °F 39 °F 19 °F (1977)
Degree Days  
Heating Degree Days 10    
Growing Degree Days 4 (Base 50)    
Moisture  
Dew Point 40 °F    
Average Humidity 65    
Maximum Humidity 85    
Minimum Humidity 33    
Precipitation  
Precipitation 0.00 in - - ()
Sea Level Pressure  
Sea Level Pressure 30.18 in    
Wind  
Wind Speed 1 mph (North)    
Max Wind Speed 8 mph    
Max Gust Speed -    
Visibility 9 miles    
Events      
Averages and records for this station are not official NWS values.
T = Trace of Precipitation, MM = Missing Value Source: NWS Daily Summary

Daily Weather History Graph

Daily Weather History Graph

Search for Another Location

Airport:

Trip Planner

Search our weather history database for the weather conditions in past years. The results will help you decide how hot, cold, wet, or windy it might be!

Date:

Astronomy

Jan. 20, 2013 Rise Set
Actual Time 6:43 AM CST 5:10 PM CST
Civil Twilight 6:17 AM CST 5:36 PM CST
Nautical Twilight 5:48 AM CST 6:05 PM CST
Astronomical Twilight 5:19 AM CST 6:34 PM CST
Moon 12:09 PM CST (1/20) 1:17 AM CST (1/20)
Length of Visible Light 11h 18m
Length of Day
10h 26m
Waxing Gibbous, 66% of the Moon is Illuminated
Jan 20
Waxing Gibbous
Jan 26
Full
Feb 3
Last Quarter
Feb 10
New
Feb 17
First Quarter

Hourly Weather History & Observations

Time (CST) Temp. Dew Point Humidity Pressure Visibility Wind Dir Wind Speed Gust Speed Precip Events Conditions
12:56 AM 46.0 °F 39.9 °F 79% 30.24 in 10.0 mi Calm Calm - N/A   Clear
1:56 AM 45.0 °F 39.9 °F 82% 30.24 in 10.0 mi Calm Calm - N/A   Mostly Cloudy
2:56 AM 44.1 °F 39.0 °F 82% 30.22 in 7.0 mi Calm Calm - N/A   Clear
3:56 AM 44.1 °F 39.0 °F 82% 30.23 in 10.0 mi Calm Calm - N/A   Clear
4:56 AM 42.1 °F 37.9 °F 85% 30.24 in 6.0 mi Calm Calm - N/A   Clear
5:56 AM 41.0 °F 36.0 °F 82% 30.24 in 9.0 mi Calm Calm - N/A   Clear
6:56 AM 42.1 °F 35.1 °F 76% 30.25 in 10.0 mi Calm Calm - N/A   Clear
7:56 AM 46.9 °F 39.9 °F 77% 30.25 in 10.0 mi Calm Calm - N/A   Clear
8:56 AM 55.9 °F 44.1 °F 64% 30.25 in 10.0 mi NNW 3.5 mph - N/A   Clear
9:56 AM 61.0 °F 42.1 °F 50% 30.25 in 10.0 mi Variable 5.8 mph - N/A   Clear
10:56 AM 64.0 °F 41.0 °F 43% 30.23 in 10.0 mi NE 8.1 mph - N/A   Clear
11:56 AM 64.9 °F 39.9 °F 40% 30.18 in 10.0 mi North 8.1 mph - N/A   Clear
12:56 PM 66.9 °F 39.0 °F 36% 30.15 in 10.0 mi NW 8.1 mph - N/A   Clear
1:56 PM 68.0 °F 37.9 °F 33% 30.13 in 10.0 mi NNE 3.5 mph - N/A   Clear
2:56 PM 66.9 °F 37.0 °F 33% 30.12 in 10.0 mi Calm Calm - N/A   Clear
3:56 PM 68.0 °F 37.9 °F 33% 30.12 in 10.0 mi North 3.5 mph - N/A   Clear
4:56 PM 64.0 °F 39.9 °F 41% 30.13 in 10.0 mi Calm Calm - N/A   Clear
5:56 PM 55.9 °F 41.0 °F 57% 30.14 in 10.0 mi Calm Calm - N/A   Clear
6:56 PM 52.0 °F 42.1 °F 69% 30.13 in 9.0 mi Calm Calm - N/A   Clear
7:41 PM 50.0 °F 42.8 °F 76% 30.14 in 2.5 mi Calm Calm - N/A   Haze
7:49 PM 50.0 °F 42.8 °F 76% 30.14 in 4.0 mi Calm Calm - N/A   Haze
7:56 PM 50.0 °F 42.1 °F 74% 30.14 in 5.0 mi Calm Calm - N/A   Haze
8:56 PM 46.9 °F 39.9 °F 77% 30.15 in 10.0 mi Calm Calm - N/A   Clear
9:56 PM 46.0 °F 39.0 °F 76% 30.14 in 10.0 mi Calm Calm - N/A   Clear
10:56 PM 44.1 °F 37.9 °F 79% 30.15 in 10.0 mi Calm Calm - N/A   Clear
11:56 PM 44.1 °F 37.9 °F 79% 30.14 in 10.0 mi Calm Calm - N/A   Clear